Starlink 34325

operational
NORAD ID: 64262 Int'l Des: 2025-120 Owner: SPXS Country: US Constellation: starlink
LEOCIRCULAR

About Starlink 34325

Description loading...

Live Position

Loading 3D Globe...

Upcoming Passes

Altitude History

Altitude vs Time

uPlot chart will show altitude changes over time

Two-Line Element Set

1 64262U 25120G 25308.48776806 .00028937 00000-0 98492-3 0 9998
2 64262 53.1597 338.4946 0001148 89.5533 270.5600 15.30213173 24749
Epoch: Nov 4, 2025 • Age: 12 hours

Current Status

Altitude 488.7 km
Velocity 7.62 km/s
Sub-Earth Point -39.45°S, 106.46°W
Launch Date Jun 4, 2025
Age 0.4 years
Type internet

Technical Details

Classification Payload
Mass 575.00 kg
Dry Mass 530.00 kg
Total Mass 575.00 kg
Length 0.30 m
Diameter 4.10 m
Span 29.00 m
Shape Box + pan
Manufacturer SPXS
Bus Type Starlink V2MO
Phase Status In Orbit
Owner/State SPXS/US

Large Constellations

Loading constellations...